Cadillac, MI

8:45 PM EDT on August 18, 2017 (GMT -0400)
Wexford County

Weather History for KCAD - November, 2012

Change the Weather History Date:

Thursday, November 1, 2012

  Actual Average Record
Temperature  
Mean Temperature 40 °F -  
Max Temperature 43 °F 52 °F 74 °F (1950)
Min Temperature 36 °F 34 °F 16 °F (1976)
Degree Days  
Heating Degree Days 26    
Moisture  
Dew Point 30 °F    
Average Humidity 74    
Maximum Humidity 90    
Minimum Humidity 57    
Precipitation  
Precipitation 0.00 in - - ()
Sea Level Pressure  
Sea Level Pressure 29.71 in    
Wind  
Wind Speed 12 mph (NW)    
Max Wind Speed 17 mph    
Max Gust Speed 25 mph    
Visibility 9 miles    
Events Rain    
Averages and records for this station are not official NWS values.
T = Trace of Precipitation, MM = Missing Value Source: NWS Daily Summary

Daily Weather History Graph

Daily Weather History Graph

Search for Another Location

Airport or City:

Trip Planner

Search our weather history database for the weather conditions in past years. The results will help you decide how hot, cold, wet, or windy it might be!

Date:

Astronomy

Nov. 01, 2012 Rise Set
Actual Time 8:19 AM EDT 6:30 PM EDT
Civil Twilight 7:49 AM EDT 7:00 PM EDT
Nautical Twilight 7:14 AM EDT 7:35 PM EDT
Astronomical Twilight 6:41 AM EDT 8:08 PM EDT
Moon 8:22 PM EDT (11/1) 10:56 AM EDT (11/1)
Length of Visible Light 11h 11m
Length of Day
10h 11m
Waning Gibbous, 93% of the Moon is Illuminated
Nov 1
Waning Gibbous
Nov 6
Last Quarter
Nov 13
New
Nov 20
First Quarter
Nov 28
Full

Hourly Weather History & Observations

Time (EDT) Temp. Windchill Dew Point Humidity Pressure Visibility Wind Dir Wind Speed Gust Speed Precip Events Conditions
12:14 AM 37.2 °F 29.1 °F 34.5 °F 90% 29.67 in 7.0 mi WNW 12.7 mph 18.4 mph N/A   Overcast
12:34 AM 36.1 °F 28.2 °F 33.3 °F 89% 29.67 in 7.0 mi WNW 11.5 mph 18.4 mph N/A   Overcast
12:54 AM 36.1 °F 29.3 °F 33.3 °F 89% 29.67 in 10.0 mi WNW 9.2 mph 20.7 mph N/A   Overcast
1:14 AM 36.1 °F 26.5 °F 33.3 °F 89% 29.66 in 5.0 mi WNW 16.1 mph 23.0 mph N/A   Overcast
1:34 AM 36.1 °F 28.7 °F 33.3 °F 89% 29.67 in 10.0 mi WNW 10.4 mph - N/A   Overcast
1:54 AM 36.1 °F 27.3 °F 33.3 °F 89% 29.66 in 10.0 mi NW 13.8 mph 17.3 mph N/A   Overcast
2:14 AM 36.1 °F 27.3 °F 33.3 °F 89% 29.66 in 10.0 mi NW 13.8 mph 19.6 mph N/A   Overcast
2:34 AM 36.1 °F 28.2 °F 33.3 °F 89% 29.67 in 10.0 mi NW 11.5 mph 17.3 mph N/A   Overcast
3:14 AM 36.1 °F 27.7 °F 33.3 °F 89% 29.67 in 4.0 mi NW 12.7 mph 17.3 mph N/A   Overcast
3:34 AM 36.1 °F 28.7 °F 33.3 °F 89% 29.67 in 4.0 mi WNW 10.4 mph 19.6 mph N/A   Overcast
3:54 AM 36.1 °F 26.5 °F 33.3 °F 89% 29.67 in 5.0 mi WNW 16.1 mph 23.0 mph N/A   Overcast
4:14 AM 36.1 °F 28.2 °F 33.3 °F 89% 29.66 in 4.0 mi WNW 11.5 mph 20.7 mph N/A Rain Light Rain
4:33 AM 36.1 °F 27.7 °F 33.3 °F 89% 29.66 in 4.0 mi WNW 12.7 mph 20.7 mph N/A Rain Light Rain
4:54 AM 36.1 °F 28.7 °F 33.3 °F 89% 29.66 in 5.0 mi WNW 10.4 mph - N/A Rain Light Rain
5:14 AM 36.1 °F 27.3 °F 33.1 °F 89% 29.67 in 5.0 mi WNW 13.8 mph 18.4 mph N/A Rain Rain
5:34 AM 36.1 °F 28.2 °F 32.9 °F 88% 29.67 in 10.0 mi NW 11.5 mph 18.4 mph N/A Rain Rain
6:14 AM 36.1 °F 29.3 °F 32.9 °F 88% 29.67 in 7.0 mi WNW 9.2 mph - N/A   Light Drizzle
6:34 AM 36.1 °F 28.7 °F 32.9 °F 88% 29.67 in 10.0 mi WNW 10.4 mph 17.3 mph N/A   Overcast
6:54 AM 36.1 °F 26.9 °F 32.0 °F 85% 29.67 in 10.0 mi NW 15.0 mph 20.7 mph N/A   Overcast
7:14 AM 36.1 °F 26.9 °F 30.7 °F 81% 29.67 in 10.0 mi NW 15.0 mph 23.0 mph N/A   Overcast
7:34 AM 36.1 °F 28.2 °F 30.2 °F 79% 29.68 in 10.0 mi NW 11.5 mph 19.6 mph N/A   Overcast
7:54 AM 36.1 °F 27.7 °F 30.4 °F 80% 29.68 in 10.0 mi WNW 12.7 mph 18.4 mph N/A   Overcast
8:14 AM 36.1 °F 26.9 °F 30.2 °F 79% 29.69 in 10.0 mi WNW 15.0 mph 19.6 mph N/A   Overcast
8:34 AM 36.1 °F 29.3 °F 30.6 °F 80% 29.69 in 10.0 mi WNW 9.2 mph - N/A   Overcast
8:54 AM 36.1 °F 28.7 °F 30.6 °F 80% 29.69 in 10.0 mi WNW 10.4 mph - N/A   Overcast
9:34 AM 36.1 °F 27.7 °F 30.0 °F 78% 29.70 in 10.0 mi WNW 12.7 mph 19.6 mph N/A   Overcast
10:14 AM 38.7 °F 31.4 °F 31.5 °F 75% 29.71 in 10.0 mi WNW 11.5 mph 21.9 mph N/A   Overcast
10:34 AM 38.7 °F 29.5 °F 30.2 °F 72% 29.71 in 10.0 mi NW 17.3 mph 23.0 mph N/A   Mostly Cloudy
11:14 AM 38.7 °F 30.1 °F 29.8 °F 71% 29.71 in 10.0 mi NW 15.0 mph 20.7 mph N/A   Mostly Cloudy
11:34 AM 39.6 °F 31.3 °F 30.4 °F 70% 29.71 in 10.0 mi NW 15.0 mph 21.9 mph N/A   Mostly Cloudy
11:54 AM 41.2 °F 32.7 °F 30.7 °F 66% 29.71 in 10.0 mi NW 17.3 mph 24.2 mph N/A   Mostly Cloudy
12:14 PM 41.2 °F 32.7 °F 29.7 °F 64% 29.71 in 10.0 mi WNW 17.3 mph 21.9 mph N/A   Mostly Cloudy
12:34 PM 42.1 °F 35.2 °F 29.1 °F 60% 29.71 in 10.0 mi NW 12.7 mph 23.0 mph N/A   Scattered Clouds
12:54 PM 43.3 °F 36.1 °F 29.5 °F 58% 29.71 in 10.0 mi WNW 15.0 mph 23.0 mph N/A   Scattered Clouds
1:14 PM 43.7 °F 37.7 °F 29.8 °F 58% 29.70 in 10.0 mi NW 11.5 mph 24.2 mph N/A   Mostly Cloudy
1:34 PM 42.4 °F 35.0 °F 28.6 °F 58% 29.70 in 10.0 mi NW 15.0 mph 24.2 mph N/A   Mostly Cloudy
2:14 PM 42.3 °F 34.4 °F 28.8 °F 59% 29.70 in 10.0 mi NW 16.1 mph 20.7 mph N/A   Overcast
2:34 PM 42.4 °F 35.0 °F 28.4 °F 58% 29.70 in 10.0 mi WNW 15.0 mph 19.6 mph N/A   Overcast
2:54 PM 41.5 °F 34.6 °F 27.5 °F 57% 29.70 in 10.0 mi NW 12.7 mph 23.0 mph N/A   Overcast
3:14 PM 41.2 °F 33.0 °F 28.0 °F 60% 29.70 in 10.0 mi NW 16.1 mph - N/A   Scattered Clouds
3:34 PM 41.2 °F 33.4 °F 28.8 °F 61% 29.70 in 10.0 mi NW 15.0 mph 23.0 mph N/A   Scattered Clouds
3:54 PM 41.2 °F 33.0 °F 28.2 °F 60% 29.71 in 10.0 mi NW 16.1 mph 25.3 mph N/A   Overcast
4:14 PM 41.2 °F 33.0 °F 28.6 °F 61% 29.71 in 10.0 mi NW 16.1 mph 21.9 mph N/A   Mostly Cloudy
4:34 PM 41.2 °F 34.1 °F 28.6 °F 61% 29.71 in 10.0 mi NW 12.7 mph 18.4 mph N/A   Mostly Cloudy
4:54 PM 41.2 °F 32.7 °F 28.8 °F 61% 29.71 in 10.0 mi WNW 17.3 mph 21.9 mph N/A   Mostly Cloudy
5:14 PM 39.9 °F 32.9 °F 29.1 °F 65% 29.72 in 10.0 mi NW 11.5 mph 21.9 mph N/A   Mostly Cloudy
5:34 PM 38.7 °F 29.8 °F 28.4 °F 67% 29.73 in 10.0 mi WNW 16.1 mph 20.7 mph N/A   Overcast
6:14 PM 38.7 °F 30.1 °F 27.9 °F 65% 29.73 in 10.0 mi NW 15.0 mph 18.4 mph N/A   Overcast
6:34 PM 38.7 °F 32.4 °F 28.2 °F 66% 29.74 in 10.0 mi WNW 9.2 mph 18.4 mph N/A   Overcast
6:54 PM 38.7 °F 31.8 °F 28.4 °F 67% 29.74 in 10.0 mi WNW 10.4 mph - N/A   Overcast
7:14 PM 38.7 °F 31.4 °F 28.6 °F 67% 29.75 in 10.0 mi WNW 11.5 mph 17.3 mph N/A   Overcast
7:34 PM 38.7 °F 32.4 °F 29.1 °F 69% 29.76 in 10.0 mi WNW 9.2 mph - N/A   Overcast
7:54 PM 38.7 °F 32.9 °F 29.1 °F 69% 29.76 in 10.0 mi NW 8.1 mph - N/A   Overcast
8:14 PM 38.7 °F 34.3 °F 29.7 °F 70% 29.76 in 10.0 mi NW 5.8 mph - N/A   Mostly Cloudy
8:34 PM 38.7 °F 32.4 °F 29.3 °F 69% 29.76 in 10.0 mi NW 9.2 mph - N/A   Overcast
8:54 PM 38.7 °F 32.4 °F 29.1 °F 69% 29.76 in 10.0 mi NW 9.2 mph - N/A   Overcast
9:14 PM 38.7 °F 32.9 °F 29.3 °F 69% 29.76 in 10.0 mi NW 8.1 mph - N/A   Overcast
9:34 PM 38.7 °F 31.8 °F 29.1 °F 69% 29.77 in 10.0 mi NNW 10.4 mph - N/A   Overcast
9:54 PM 38.7 °F 32.4 °F 30.9 °F 74% 29.78 in 10.0 mi NNW 9.2 mph - N/A   Overcast
10:14 PM 37.4 °F 30.8 °F 30.9 °F 77% 29.78 in 10.0 mi NNW 9.2 mph - N/A   Overcast
10:34 PM 36.1 °F 29.3 °F 30.2 °F 79% 29.78 in 10.0 mi NNW 9.2 mph - N/A   Overcast
10:54 PM 36.1 °F 32.3 °F 30.6 °F 80% 29.78 in 10.0 mi NNW 4.6 mph - N/A   Overcast
11:14 PM 36.3 °F 30.1 °F 29.8 °F 77% 29.78 in 10.0 mi NW 8.1 mph 17.3 mph N/A   Overcast
11:34 PM 37.4 °F 29.8 °F 27.5 °F 67% 29.78 in 10.0 mi NW 11.5 mph 19.6 mph N/A   Overcast
11:54 PM 38.5 °F 32.1 °F 26.6 °F 62% 29.78 in 10.0 mi NW 9.2 mph 19.6 mph N/A   Overcast